Simultaneous Nadir Overpasses (SNOs) Predictions

Prediction of SNOs between GOES-14 and NOAA-20 Satellite Orbit:

Table of predicted SNOs for the next 14.0 days since TLE Epoch: 5/8/2020
Index Date Time (GOES-14) GOES-14 Lat,Lon NOAA-20 Lat,Lon Distance(km) Time Diff (sec)
1 05/09/2020 08:14:30 0.10,-104.14 -0.38,-102.06 237.19 80
2 05/10/2020 20:36:27 -0.08,-104.23 -0.80,-107.37 358.46 80
3 05/11/2020 20:15:02 -0.10,-104.22 0.23,-102.84 157.93 80
4 05/13/2020 08:36:49 0.08,-104.13 0.94,-108.11 452.66 80
5 05/14/2020 08:20:44 0.09,-104.14 -0.04,-103.57 64.92 80
6 05/16/2020 20:23:56 -0.08,-104.25 -0.10,-104.36 11.44 80
7 05/19/2020 08:24:18 0.07,-104.17 0.30,-105.09 105.49 80
8 05/20/2020 08:08:13 0.08,-104.18 -0.74,-100.56 412.31 80
9 05/21/2020 20:30:09 -0.05,-104.29 -0.43,-105.87 180.21 80




NCC Satellite Simultaneous Nadir Overpasses (SNOs) Prediction Service
